[[{"header":{"parameterUnit":"m.s-1","parameterCategory":1,"la1":30.2991,"la2":30.254,"lo1":-89.0895,"lo2":-89.0444,"dy":0.0017,"dx":0.0017,"nx":28,"ny":28,"refTime":"2024-06-15T03:00:00:Z","depth":0,"parameterNumber":2,"parameterNumberName":"U-component_of_WINDS"},"data":[0,0,0,0,0,0,0,0,0,0,0,0,0,0,0,0,0,0,0,0,0,0,0,0,0,0,0,0,0,0,0,0,0,0,0,0,0,0,0,0,0,0,0,0,0,0,0,0,0,0,0,0,0,0,0,0,0,0,-2.8188,-2.8188,0,-2.8152,-2.8152,-2.8152,-2.8089,-2.8088,-2.8087,-2.8086,-2.8051,-2.8051,-2.8051,0,0,0,0,0,0,0,0,0,0,0,0,0,-2.8206,-2.8206,-2.8188,-2.8187,-2.8187,-2.8152,-2.8152,-2.8151,-2.809,-2.8088,-2.8087,-2.8085,-2.8051,-2.8051,-2.8051,0,0,0,0,0,0,0,0,0,0,0,0,0,-2.8187,-2.8206,-2.8188,-2.8152,-2.8148,-2.8153,-2.8152,-2.8151,-2.809,-2.8088,-2.8086,-2.8085,-2.8051,-2.8051,-2.8051,-2.8088,0,0,-2.8052,-2.8052,0,0,0,0,0,0,0,0,-2.8189,-2.8187,-2.8158,-2.8154,-2.815,-2.8123,-2.8146,-2.813,-2.809,-2.8112,-2.8086,-2.8084,-2.8077,-2.8075,-2.8072,-2.8087,-2.8085,-2.8052,-2.8052,-2.8052,-2.8053,0,0,0,0,0,0,0,-2.819,-2.8188,-2.8174,-2.8157,-2.8153,-2.8139,-2.8134,-2.8142,-2.8105,-2.811,-2.8105,-2.8102,-2.8074,-2.8072,-2.8071,-2.8085,-2.8052,-2.8052,-2.8053,-2.8053,-2.8132,-2.8134,0,0,0,0,0,0,-2.8196,-2.8189,-2.8175,-2.8173,-2.8165,-2.814,-2.8135,-2.8134,-2.8104,-2.8098,-2.8104,-2.8099,-2.8072,-2.807,-2.8069,-2.8112,-2.8052,-2.8053,-2.8053,-2.813,-2.8132,-2.8134,0,0,0,0,0,0,-2.8197,-2.8195,-2.8176,-2.818,-2.8176,-2.8142,-2.8141,-2.8134,-2.8131,-2.81,-2.8093,-2.8108,-2.8071,-2.8069,-2.8085,-2.811,-2.8053,-2.8053,-2.8128,-2.8131,-2.8133,-2.8198,0,0,0,0,0,0,-2.8198,-2.8196,-2.8208,-2.8181,-2.8176,-2.8191,-2.8143,-2.8135,-2.8132,-2.8126,-2.8102,-2.8096,-2.8069,-2.8085,-2.8085,-2.811,-2.8053,-2.8125,-2.8129,-2.8132,-2.8194,-2.8203,-2.8211,0,0,0,0,0,-2.8198,-2.8228,-2.8209,-2.8208,-2.8191,-2.8193,-2.8191,-2.8159,-2.8134,-2.8147,-2.8128,-2.8097,-2.8108,-2.8087,-2.8087,-2.8112,-2.8123,-2.8128,-2.8132,-2.819,-2.8201,-2.8211,0,0,0,0,0,0,-2.8259,-2.8223,-2.8202,-2.8223,-2.8212,-2.8182,-2.8197,-2.8172,-2.8167,-2.8161,-2.8123,-2.8118,-2.814,-2.8127,-2.8105,-2.8148,-2.8111,-2.8116,-2.8155,-2.8165,-2.8174,-2.8176,-2.8053,0,0,0,0,0,-2.8275,-2.8278,-2.8247,-2.8269,-2.8264,-2.8232,-2.8232,-2.8209,-2.8195,-2.819,-2.8171,-2.816,-2.8161,-2.8163,-2.8162,-2.8192,-2.8187,-2.821,-2.8218,-2.8226,-2.823,-2.8248,-2.8258,-2.8149,-2.8149,-2.8149,0,0,-2.8307,-2.8288,-2.8292,-2.828,-2.8269,-2.8275,-2.8228,-2.8236,-2.824,-2.8191,-2.8205,-2.8192,-2.8177,-2.8201,-2.8211,-2.8191,-2.826,-2.8231,-2.8237,-2.8237,-2.8254,-2.8264,-2.8273,-2.8152,-2.8151,-2.8151,0,0,-2.8369,-2.8355,-2.8372,-2.8362,-2.8345,-2.8324,-2.8329,-2.8305,-2.8294,-2.8307,-2.8272,-2.8278,-2.828,-2.8272,-2.8268,-2.8332,-2.8304,-2.8333,-2.8378,-2.8396,-2.8405,-2.8412,-2.8437,-2.8446,-2.8337,-2.8338,-2.8338,0,-2.8411,-2.8418,-2.8384,-2.8395,-2.8392,-2.8349,-2.8368,-2.836,-2.8344,-2.8344,-2.8322,-2.8327,-2.8313,-2.8336,-2.8353,-2.835,-2.8356,-2.8335,-2.8406,-2.8413,-2.842,-2.8443,-2.8452,-2.8341,-2.8341,-2.834,-2.834,0,-2.8472,-2.8478,-2.8494,-2.8481,-2.8479,-2.8494,-2.8465,-2.8468,-2.8447,-2.8429,-2.8445,-2.8429,-2.8425,-2.8429,-2.8407,-2.845,-2.8439,-2.8413,-2.8375,-2.8434,-2.8455,-2.8464,-2.8346,-2.8345,-2.8344,-2.8343,0,0,-2.8568,-2.8539,-2.8545,-2.854,-2.852,-2.8525,-2.8539,-2.8536,-2.854,-2.8532,-2.8544,-2.8549,-2.8526,-2.8522,-2.85,-2.8515,-2.857,-2.8487,-2.8486,-2.8504,-2.8619,-2.8639,-2.865,-2.8552,-2.8554,-2.8555,-2.862,0,-2.8627,-2.8648,-2.862,-2.8649,-2.8655,-2.8616,-2.8629,-2.862,-2.8605,-2.8609,-2.8593,-2.8598,-2.8565,-2.8563,-2.8577,-2.856,-2.8593,-2.8555,-2.8565,-2.8565,-2.8569,-2.866,-2.8681,-2.8743,-2.8628,-2.863,-2.8631,0,-2.8696,-2.8693,-2.8722,-2.8704,-2.8705,-2.8717,-2.8714,-2.8718,-2.8708,-2.8696,-2.8694,-2.8668,-2.8683,-2.8647,-2.8669,-2.8644,-2.8647,-2.864,-2.8642,-2.8641,-2.8601,-2.8663,-2.8762,-2.8772,-2.8643,-2.8642,-2.8641,0,-2.8766,-2.8768,-2.8786,-2.8783,-2.8761,-2.8771,-2.8763,-2.8751,-2.8752,-2.875,-2.8751,-2.875,-2.875,-2.8752,-2.8728,-2.8703,-2.8753,-2.8715,-2.8745,-2.8746,-2.8757,-2.8756,-2.8858,-2.8758,-2.8758,-2.8758,-2.8758,0,-2.8833,-2.8853,-2.8817,-2.8829,-2.8851,-2.882,-2.8843,-2.8831,-2.8822,-2.8832,-2.8799,-2.8809,-2.8776,-2.8784,-2.8766,-2.8788,-2.8788,-2.878,-2.8775,-2.8783,-2.8784,-2.8784,-2.8779,-2.8761,-2.876,-2.876,-2.8759,0,-2.8913,-2.889,-2.8908,-2.8887,-2.8883,-2.89,-2.8883,-2.8894,-2.8878,-2.8892,-2.8893,-2.8869,-2.8876,-2.8853,-2.8856,-2.8844,-2.8877,-2.8864,-2.888,-2.8877,-2.8909,-2.8907,-2.9014,-2.9028,-2.8919,-2.892,-2.8921,0,-2.8958,-2.8973,-2.8955,-2.8959,-2.8953,-2.896,-2.8961,-2.8933,-2.8936,-2.8928,-2.8941,-2.8946,-2.8948,-2.8963,-2.8946,-2.895,-2.8937,-2.8975,-2.8938,-2.8947,-2.894,-2.8939,-2.8941,-2.8983,-2.8984,-2.8985,-2.8986,0,-2.9041,-2.9029,-2.9032,-2.9033,-2.9035,-2.9034,-2.9031,-2.9037,-2.9007,-2.9012,-2.902,-2.9022,-2.9027,-2.9033,-2.9034,-2.9027,-2.9003,-2.8998,-2.9006,-2.9014,-2.9023,-2.902,-2.8902,-2.8996,-2.8995,-2.8994,-2.8993,-2.8993,-2.9105,-2.9117,-2.9107,-2.9113,-2.9108,-2.9106,-2.9116,-2.9103,-2.9108,-2.911,-2.9094,-2.9106,-2.9099,-2.9097,-2.9094,-2.9104,-2.9087,-2.9097,-2.91,-2.9103,-2.9109,-2.9022,-2.9104,-2.9103,-2.9103,-2.9103,-2.9103,0,-2.9187,-2.9179,-2.9185,-2.9182,-2.9187,-2.9164,-2.916,-2.9166,-2.9177,-2.9172,-2.9176,-2.9187,-2.9194,-2.9179,-2.9185,-2.9196,-2.9185,-2.9198,-2.9197,-2.9197,-2.9123,-2.9117,-2.9207,-2.9207,-2.9207,-2.9207,-2.9207,-2.9207,-2.923,-2.925,-2.9239,-2.9257,-2.925,-2.9261,-2.9261,-2.9261,-2.9257,-2.9271,-2.9276,-2.9267,-2.9259,-2.9264,-2.9271,-2.9267,-2.9271,-2.9288,-2.928,-2.9212,-2.9201,-2.9192,-2.9185,-2.9289,-2.9289,-2.9353,-2.9354,-2.9354]},{"header":{"parameterUnit":"m.s-1","parameterCategory":1,"la1":30.2991,"la2":30.254,"lo1":-89.0895,"lo2":-89.0444,"dy":0.0017,"dx":0.0017,"nx":28,"ny":28,"refTime":"2024-06-15T03:00:00:Z","depth":0,"parameterNumber":3,"parameterNumberName":"V-component_of_WINDS"},"data":[0,0,0,0,0,0,0,0,0,0,0,0,0,0,0,0,0,0,0,0,0,0,0,0,0,0,0,0,0,0,0,0,0,0,0,0,0,0,0,0,0,0,0,0,0,0,0,0,0,0,0,0,0,0,0,0,0,0,2.9691,2.9691,0,2.9698,2.9698,2.9698,2.9768,2.977,2.9772,2.9774,2.9773,2.9771,2.977,0,0,0,0,0,0,0,0,0,0,0,0,0,2.9733,2.9731,2.9691,2.9691,2.9691,2.9698,2.9698,2.9698,2.9768,2.977,2.9772,2.9774,2.9774,2.9772,2.977,0,0,0,0,0,0,0,0,0,0,0,0,0,2.9724,2.9731,2.9691,2.9727,2.973,2.9698,2.9698,2.9698,2.9768,2.977,2.9773,2.9775,2.9774,2.9772,2.9769,2.97,0,0,2.9762,2.9761,0,0,0,0,0,0,0,0,2.9725,2.9723,2.9722,2.9725,2.9728,2.9735,2.9713,2.9699,2.9767,2.9753,2.9774,2.9777,2.9758,2.9757,2.9752,2.97,2.97,2.9761,2.976,2.9759,2.9758,0,0,0,0,0,0,0,2.9725,2.9723,2.9694,2.9722,2.9726,2.9741,2.9743,2.971,2.974,2.9755,2.976,2.976,2.976,2.9754,2.9752,2.97,2.9761,2.9759,2.9758,2.9757,2.9593,2.959,0,0,0,0,0,0,2.9722,2.9723,2.9693,2.9694,2.9733,2.9738,2.974,2.973,2.9741,2.9745,2.9758,2.9763,2.9757,2.9755,2.9753,2.9672,2.9759,2.9756,2.9755,2.9595,2.9592,2.9589,0,0,0,0,0,0,2.9722,2.9718,2.9693,2.971,2.9708,2.9735,2.9723,2.9729,2.9723,2.9743,2.9748,2.9747,2.9759,2.9756,2.9713,2.9673,2.9755,2.9753,2.9599,2.9594,2.959,2.951,0,0,0,0,0,0,2.9723,2.9718,2.9693,2.9709,2.9707,2.9655,2.972,2.9727,2.972,2.9727,2.9734,2.9738,2.9761,2.9717,2.9711,2.9671,2.9751,2.9602,2.9597,2.9592,2.9517,2.9504,2.9493,0,0,0,0,0,2.9724,2.9669,2.9692,2.9688,2.9677,2.9653,2.9651,2.9681,2.9716,2.969,2.9704,2.9738,2.9679,2.9712,2.9706,2.9664,2.9605,2.9598,2.9592,2.9522,2.9506,2.9493,0,0,0,0,0,0,2.9644,2.9671,2.9697,2.9645,2.9647,2.9665,2.9633,2.9664,2.9653,2.966,2.9696,2.9697,2.9648,2.9653,2.9688,2.9599,2.9648,2.964,2.9597,2.9582,2.957,2.9569,2.9749,0,0,0,0,0,2.9622,2.9602,2.9626,2.9578,2.9578,2.9605,2.9596,2.9619,2.9621,2.9621,2.9631,2.9629,2.9611,2.9597,2.9581,2.9519,2.9521,2.9488,2.9476,2.9466,2.9458,2.9424,2.9409,2.9568,2.9568,2.9568,0,0,2.9572,2.9585,2.957,2.9562,2.9566,2.9543,2.9605,2.9578,2.956,2.9616,2.9576,2.9584,2.9584,2.9532,2.9509,2.9534,2.9415,2.9458,2.945,2.9447,2.9416,2.9401,2.9388,2.9563,2.9564,2.9565,0,0,2.9471,2.9479,2.944,2.9444,2.945,2.9469,2.946,2.9474,2.9481,2.9443,2.9485,2.9464,2.9431,2.943,2.9425,2.9326,2.9356,2.932,2.9256,2.9223,2.9211,2.92,2.9162,2.9149,2.9312,2.9312,2.9312,0,2.9408,2.9377,2.9415,2.9386,2.9381,2.9434,2.9394,2.9394,2.9393,2.9388,2.9417,2.9378,2.9382,2.9329,2.9306,2.9301,2.9289,2.9317,2.921,2.9199,2.919,2.9154,2.914,2.9307,2.9308,2.9308,2.9309,0,2.9299,2.9277,2.9244,2.9245,2.9237,2.9202,2.9233,2.922,2.9245,2.926,2.922,2.9228,2.9214,2.9205,2.9227,2.9155,2.917,2.9204,2.9254,2.9169,2.9136,2.9123,2.9301,2.9302,2.9304,2.9305,0,0,2.9143,2.9169,2.9156,2.9157,2.9169,2.9151,2.9119,2.9109,2.9096,2.9094,2.9066,2.9039,2.9071,2.9066,2.9089,2.9061,2.898,2.9099,2.9099,2.9074,2.8898,2.887,2.8854,2.9002,2.9,2.8998,2.8898,0,2.9044,2.8992,2.9026,2.8967,2.8946,2.8998,2.897,2.8973,2.8987,2.897,2.8986,2.8965,2.901,2.9007,2.8982,2.8995,2.8945,2.9003,2.8973,2.8972,2.8968,2.8838,2.8808,2.8713,2.8885,2.8883,2.8882,0,2.892,2.8916,2.8856,2.8873,2.8865,2.8839,2.8833,2.8817,2.8822,2.8834,2.8829,2.8861,2.8828,2.8881,2.8835,2.8874,2.8865,2.8869,2.8867,2.8862,2.8919,2.8827,2.8683,2.8668,2.8862,2.8864,2.8865,0,2.881,2.879,2.8751,2.8751,2.877,2.8751,2.8757,2.8765,2.8757,2.8751,2.8746,2.8735,2.8728,2.8719,2.8746,2.8782,2.8696,2.8751,2.8703,2.8702,2.8679,2.868,2.8529,2.8678,2.8678,2.8678,2.8679,0,2.8694,2.8654,2.8702,2.8677,2.8635,2.8675,2.863,2.8642,2.8649,2.8627,2.8671,2.8649,2.8688,2.8669,2.869,2.8648,2.8645,2.8652,2.8658,2.8647,2.8645,2.8638,2.8644,2.8675,2.8676,2.8676,2.8677,0,2.8561,2.8593,2.8554,2.8577,2.8582,2.8548,2.8567,2.8545,2.8564,2.8535,2.853,2.8559,2.8539,2.8567,2.8549,2.8563,2.8505,2.8522,2.8504,2.8508,2.8457,2.8461,2.8294,2.8274,2.8438,2.8436,2.8435,0,2.8484,2.8455,2.8476,2.8465,2.847,2.8453,2.8446,2.8485,2.8475,2.8479,2.8455,2.844,2.843,2.8395,2.8413,2.8399,2.8415,2.8358,2.8412,2.8402,2.8411,2.8411,2.8407,2.8345,2.8343,2.8341,2.834,0,2.8341,2.8359,2.8348,2.8343,2.8334,2.8331,2.8331,2.8319,2.836,2.8347,2.8329,2.8321,2.8304,2.8287,2.8279,2.8284,2.8317,2.8323,2.8311,2.8297,2.8287,2.829,2.847,2.8326,2.8327,2.8328,2.8329,2.8329,2.8232,2.8209,2.8221,2.8207,2.8212,2.8212,2.8192,2.821,2.8197,2.8188,2.8212,2.8187,2.8193,2.8186,2.8188,2.8168,2.8192,2.8175,2.817,2.8164,2.8156,2.8293,2.8167,2.8167,2.8168,2.8168,2.8168,0,2.8091,2.8102,2.8089,2.8089,2.8078,2.8116,2.8118,2.8105,2.8084,2.8089,2.8078,2.8057,2.8042,2.806,2.8047,2.8028,2.8043,2.8023,2.8023,2.8023,2.8136,2.8146,2.8011,2.8011,2.8011,2.8011,2.8011,2.8011,2.8015,2.7978,2.7997,2.7962,2.7973,2.7951,2.7949,2.7949,2.7952,2.7927,2.7916,2.7929,2.7938,2.7927,2.7914,2.792,2.7912,2.7886,2.7896,2.8,2.8015,2.803,2.804,2.7885,2.7885,2.7786,2.7785,2.7784]}]]